Weather History for Peru, IL

Change the Weather History Date:

Monday, April 14, 2014

  Actual Average Record
Temperature  
Mean Temperature 47 °F -  
Max Temperature 61 °F 60 °F 87 °F (1977)
Min Temperature 31 °F 38 °F 23 °F (1989)
Degree Days  
Heating Degree Days 18    
Moisture  
Dew Point 37 °F    
Average Humidity 88    
Maximum Humidity 96    
Minimum Humidity 80    
Precipitation  
Precipitation 0.05 in - - ()
Sea Level Pressure  
Sea Level Pressure 29.78 in    
Wind  
Wind Speed 19 mph (NNW)    
Max Wind Speed 30 mph    
Max Gust Speed 40 mph    
Visibility 8 miles    
Events Rain , Snow    
Averages and records for this station are not official NWS values.
T = Trace of Precipitation, MM = Missing Value Source: NWS Daily Summary

Daily Weather History Graph

Daily Weather History Graph

Search for Another Location

Airport:

Trip Planner

Search our weather history database for the weather conditions in past years. The results will help you decide how hot, cold, wet, or windy it might be!

Date:

Astronomy

Apr. 14, 2014 Rise Set
Actual Time 6:18 AM CDT 7:35 PM CDT
Civil Twilight 5:49 AM CDT 8:04 PM CDT
Nautical Twilight 5:15 AM CDT 8:38 PM CDT
Astronomical Twilight 4:39 AM CDT 9:15 PM CDT
Moon 7:14 PM CDT (4/14) 5:51 AM CDT (4/14)
Length of Visible Light 14h 14m
Length of Day
13h 17m
Full, 100% of the Moon is Illuminated
Apr 14
Full
Apr 15
Full
Apr 22
Last Quarter
Apr 29
New
May 6
First Quarter

Hourly Weather History & Observations

Time (CDT) Temp. Windchill Dew Point Humidity Pressure Visibility Wind Dir Wind Speed Gust Speed Precip Events Conditions
12:10 AM 62.8 °F - 57.4 °F 82% 29.37 in 10.0 mi South 25.3 mph 32.2 mph N/A   Scattered Clouds
12:30 AM 62.6 °F - 57.2 °F 82% 29.37 in 10.0 mi South 18.4 mph 28.8 mph N/A   Mostly Cloudy
12:50 AM 61.7 °F - 57.2 °F 85% 29.37 in 10.0 mi South 21.9 mph 25.3 mph N/A   Overcast
1:10 AM 61.2 °F - 57.2 °F 87% 29.37 in 10.0 mi SSW 23.0 mph 36.8 mph N/A   Overcast
1:30 AM 59.9 °F - 54.7 °F 83% 29.38 in 10.0 mi SW 24.2 mph 33.4 mph N/A   Overcast
1:50 AM 59.5 °F - 54.9 °F 84% 29.38 in 10.0 mi SW 23.0 mph 28.8 mph N/A   Overcast
2:10 AM 57.6 °F - 52.9 °F 84% 29.39 in 10.0 mi WSW 26.5 mph 33.4 mph N/A   Overcast
2:30 AM 55.2 °F - 50.9 °F 85% 29.40 in 10.0 mi WSW 26.5 mph 35.7 mph N/A   Overcast
2:50 AM 53.6 °F - 49.6 °F 86% 29.41 in 10.0 mi SW 27.6 mph 35.7 mph N/A   Overcast
3:10 AM 52.3 °F - 49.5 °F 90% 29.41 in 7.0 mi SW 23.0 mph 32.2 mph N/A   Overcast
3:30 AM 52.2 °F - 50.0 °F 92% 29.42 in 3.0 mi West 21.9 mph 28.8 mph N/A   Overcast
3:50 AM 48.0 °F - 45.7 °F 92% 29.45 in 5.0 mi WNW 20.7 mph 31.1 mph N/A   Overcast
4:10 AM 46.2 °F 37.7 °F 43.7 °F 91% 29.47 in 10.0 mi NW 25.3 mph 33.4 mph N/A   Overcast
4:30 AM 43.9 °F 33.8 °F 40.8 °F 89% 29.52 in 10.0 mi NNW 29.9 mph 40.3 mph N/A   Overcast
4:50 AM 42.8 °F 33.1 °F 39.2 °F 87% 29.55 in 10.0 mi NNW 25.3 mph 33.4 mph N/A   Overcast
5:10 AM 42.8 °F 33.1 °F 38.5 °F 85% 29.55 in 10.0 mi North 25.3 mph 35.7 mph N/A   Overcast
5:30 AM 42.1 °F 32.8 °F 37.8 °F 85% 29.59 in 10.0 mi NNW 21.9 mph 32.2 mph N/A   Overcast
5:50 AM 41.5 °F 33.8 °F 37.4 °F 85% 29.61 in 10.0 mi North 15.0 mph 23.0 mph N/A   Light Drizzle
6:10 AM 41.0 °F 31.4 °F 36.3 °F 83% 29.64 in 10.0 mi NNW 21.9 mph 26.5 mph N/A   Overcast
6:30 AM 39.2 °F 29.3 °F 35.6 °F 87% 29.65 in 10.0 mi North 20.7 mph 25.3 mph N/A Rain Light Rain
6:50 AM 39.6 °F 31.0 °F 35.6 °F 86% 29.68 in 7.0 mi North 16.1 mph - 0.01 in Rain Rain
7:10 AM 39.6 °F 31.3 °F 35.6 °F 86% 29.71 in 10.0 mi North 15.0 mph 20.7 mph 0.01 in Rain Light Rain
7:30 AM 39.6 °F 31.7 °F 35.6 °F 86% 29.73 in 10.0 mi North 13.8 mph 19.6 mph 0.01 in   Overcast
7:50 AM 39.6 °F 31.3 °F 35.1 °F 84% 29.73 in 10.0 mi North 15.0 mph 25.3 mph 0.01 in   Overcast
8:10 AM 39.7 °F 31.5 °F 34.9 °F 83% 29.75 in 10.0 mi North 15.0 mph 23.0 mph N/A   Overcast
8:30 AM 40.1 °F 31.0 °F 34.5 °F 80% 29.75 in 10.0 mi North 18.4 mph 26.5 mph N/A   Overcast
8:50 AM 41.0 °F 31.4 °F 35.6 °F 81% 29.75 in 10.0 mi North 21.9 mph 25.3 mph N/A   Overcast
9:10 AM 39.6 °F 30.0 °F 35.1 °F 84% 29.77 in 7.0 mi North 19.6 mph 26.5 mph N/A   Overcast
9:30 AM 39.7 °F 30.9 °F 35.4 °F 85% 29.80 in 10.0 mi North 17.3 mph 23.0 mph N/A   Overcast
9:50 AM 39.9 °F 31.1 °F 34.7 °F 82% 29.83 in 10.0 mi NNW 17.3 mph 21.9 mph N/A   Overcast
10:10 AM 39.7 °F 31.2 °F 34.7 °F 82% 29.84 in 10.0 mi North 16.1 mph - N/A   Overcast
10:30 AM 39.7 °F 30.9 °F 35.2 °F 84% 29.83 in 10.0 mi NNW 17.3 mph 24.2 mph N/A Rain Light Rain
10:50 AM 40.6 °F 32.0 °F 35.8 °F 83% 29.85 in 10.0 mi North 17.3 mph - N/A   Light Drizzle
11:10 AM 40.3 °F 31.0 °F 34.9 °F 81% 29.85 in 10.0 mi NNW 19.6 mph 26.5 mph N/A Rain Light Rain
11:30 AM 39.9 °F 31.1 °F 34.5 °F 81% 29.87 in 10.0 mi NNW 17.3 mph 23.0 mph N/A   Overcast
11:50 AM 39.6 °F 30.3 °F 33.8 °F 80% 29.85 in 10.0 mi NNW 18.4 mph 23.0 mph N/A   Overcast
12:10 PM 39.6 °F 30.6 °F 34.3 °F 82% 29.86 in 10.0 mi NNW 17.3 mph - N/A   Overcast
12:30 PM 38.8 °F 29.7 °F 34.3 °F 84% 29.87 in 10.0 mi NNW 17.3 mph 26.5 mph N/A   Light Drizzle
12:50 PM 38.5 °F 29.2 °F 34.5 °F 86% 29.87 in 10.0 mi NNW 17.3 mph 24.2 mph N/A   Light Drizzle
1:10 PM 39.6 °F 29.5 °F 35.2 °F 85% 29.87 in 10.0 mi NNW 21.9 mph 25.3 mph N/A   Overcast
1:30 PM 37.9 °F 27.9 °F 32.5 °F 81% 29.88 in 10.0 mi NNW 19.6 mph - N/A   Overcast
1:50 PM 37.9 °F 27.6 °F 32.4 °F 80% 29.88 in 10.0 mi NNW 20.7 mph 26.5 mph N/A   Overcast
2:10 PM 38.1 °F 29.1 °F 32.4 °F 80% 29.89 in 10.0 mi NNW 16.1 mph 23.0 mph N/A   Overcast
2:30 PM 37.4 °F 27.8 °F 32.4 °F 82% 29.90 in 7.0 mi NNW 17.3 mph 21.9 mph N/A Snow Light Snow
2:50 PM 35.8 °F 25.1 °F 32.0 °F 86% 29.90 in 3.0 mi NNW 19.6 mph 24.2 mph N/A Snow Light Snow
3:10 PM 35.6 °F 25.5 °F 32.5 °F 89% 29.91 in 4.0 mi NNW 17.3 mph 23.0 mph N/A Snow Light Snow
3:30 PM 35.6 °F 26.6 °F 32.0 °F 87% 29.91 in 5.0 mi NNW 13.8 mph 18.4 mph N/A Snow Light Snow
3:50 PM 34.7 °F 24.7 °F 32.0 °F 90% 29.91 in 2.0 mi NNW 16.1 mph 24.2 mph N/A Snow Light Snow
4:10 PM 34.3 °F 23.9 °F 32.2 °F 92% 29.92 in 2.0 mi NNW 17.3 mph - N/A Snow Light Snow
4:30 PM 33.4 °F 23.9 °F 32.0 °F 94% 29.92 in 1.5 mi NNW 13.8 mph - 0.01 in Snow Light Snow
4:50 PM 33.8 °F 25.3 °F 32.2 °F 94% 29.92 in 0.8 mi NNW 11.5 mph - 0.01 in Snow Light Snow
5:10 PM 33.3 °F 22.5 °F 32.0 °F 95% 29.93 in 1.2 mi NNW 17.3 mph 25.3 mph N/A Snow Light Snow
5:30 PM 33.8 °F 24.3 °F 32.0 °F 93% 29.94 in 4.0 mi NNW 13.8 mph 21.9 mph 0.01 in Snow Light Snow
5:50 PM 34.3 °F 25.5 °F 32.4 °F 92% 29.96 in 1.2 mi NNW 12.7 mph - 0.01 in Snow Light Snow
6:10 PM 33.3 °F 23.2 °F 32.0 °F 95% 29.97 in 0.8 mi NNW 15.0 mph 18.4 mph N/A Snow Light Snow
6:30 PM 33.8 °F 23.5 °F 32.0 °F 93% 29.97 in 1.0 mi NNW 16.1 mph - N/A Snow Light Snow
6:50 PM 32.5 °F 21.9 °F 31.6 °F 96% 29.98 in 1.0 mi NNW 16.1 mph - N/A Snow Light Snow
7:10 PM 32.9 °F 23.2 °F 32.0 °F 96% 29.98 in 1.2 mi NNW 13.8 mph - N/A Snow Light Snow
7:30 PM 32.5 °F 22.7 °F 31.3 °F 95% 29.99 in 2.0 mi NNW 13.8 mph 21.9 mph 0.01 in Snow Light Snow
7:50 PM 32.5 °F 25.5 °F 31.1 °F 94% 29.99 in 3.0 mi NNW 8.1 mph - 0.01 in Snow Light Snow
8:10 PM 32.9 °F 25.3 °F 31.6 °F 95% 30.00 in 4.0 mi NNW 9.2 mph - N/A Rain Light Rain
8:30 PM 32.9 °F 28.5 °F 32.0 °F 96% 30.00 in 5.0 mi NNW 4.6 mph - N/A Rain Rain
8:50 PM 33.1 °F 26.1 °F 32.0 °F 96% 30.00 in 7.0 mi NNW 8.1 mph - N/A Rain Light Rain
9:10 PM 32.7 °F 23.4 °F 31.3 °F 94% 30.00 in 7.0 mi NNW 12.7 mph - N/A   Overcast
9:30 PM 32.5 °F 24.8 °F 30.7 °F 93% 30.01 in 10.0 mi North 9.2 mph - N/A   Overcast
9:50 PM 32.7 °F 25.0 °F 30.6 °F 92% 30.01 in 10.0 mi NNW 9.2 mph - N/A   Overcast
10:10 PM 32.9 °F 26.7 °F 31.1 °F 93% 30.02 in 10.0 mi NNW 6.9 mph - N/A   Overcast
10:30 PM 32.5 °F 24.8 °F 30.2 °F 91% 30.02 in 10.0 mi NNW 9.2 mph 16.1 mph N/A   Overcast
10:50 PM 32.0 °F 22.5 °F 29.7 °F 91% 30.02 in 10.0 mi NNW 12.7 mph 16.1 mph N/A   Mostly Cloudy
11:10 PM 32.0 °F 24.2 °F 29.3 °F 90% 30.02 in 10.0 mi NNW 9.2 mph - N/A   Scattered Clouds
11:30 PM 32.0 °F - 29.1 °F 89% 30.03 in 10.0 mi Calm Calm - N/A   Clear
11:50 PM 31.6 °F - 28.9 °F 90% 30.03 in 10.0 mi Calm Calm - N/A   Clear